This is the latest recevied weather packets stored in our database for station/object LU1MQF-13. If no packets are shown the sender has not sent any weather packets the latest 10 day(s).
| Time | Temp. | Humidity | Pressure | Rain* | Wind** | Luminosity | Snow |
|---|---|---|---|---|---|---|---|
| 1777672619 | 18.89° C | 25% | 941.7 hPa | - | - | - | - |
| 1777671720 | 18.89° C | 24% | 941.1 hPa | - | - | - | - |
| 1777670820 | 18.89° C | 24% | 940.9 hPa | - | - | - | - |
| 1777669921 | 18.89° C | 24% | 940.5 hPa | - | - | - | - |
| 1777669020 | 20° C | 24% | 940.4 hPa | - | - | - | - |
| 1777668120 | 20° C | 23% | 940 hPa | - | - | - | - |
| 1777667220 | 20° C | 24% | 939.8 hPa | - | - | - | - |
| 1777666319 | 20° C | 24% | 939.5 hPa | - | - | - | - |
| 1777665419 | 20° C | 21% | 939.2 hPa | - | - | - | - |
| 1777664519 | 20° C | 21% | 938.9 hPa | - | - | - | - |
| 1777663619 | 20° C | 22% | 938.7 hPa | - | - | - | - |
| 1777662719 | 21.11° C | 20% | 938.5 hPa | - | - | - | - |
| 1777661820 | 21.11° C | 19% | 938.2 hPa | - | - | - | - |
| 1777660919 | 21.11° C | 20% | 938 hPa | - | - | - | - |
| 1777660019 | 21.11° C | 21% | 938 hPa | - | - | - | - |
| 1777659119 | 21.11° C | 22% | 937.9 hPa | - | - | - | - |
| 1777658219 | 21.11° C | 23% | 937.7 hPa | - | - | - | - |
| 1777657320 | 21.11° C | 20% | 937.8 hPa | - | - | - | - |
| 1777656419 | 21.11° C | 21% | 937.6 hPa | - | - | - | - |
| 1777655519 | 21.11° C | 23% | 937.7 hPa | - | - | - | - |
| 1777654620 | 21.11° C | 21% | 937.8 hPa | - | - | - | - |
| 1777653719 | 21.11° C | 23% | 937.6 hPa | - | - | - | - |
| 1777652819 | 21.11° C | 24% | 937.8 hPa | - | - | - | - |
| 1777651919 | 21.11° C | 23% | 937.7 hPa | - | - | - | - |
| 1777651019 | 21.11° C | 24% | 937.7 hPa | - | - | - | - |
* Rain since midnight (hover to see other rain measurements)
** Current wind speed in m/s (hover to see current wind gust speed)